Location: Bow
(51.5261°N, 0.0167°W)
Time: 15:43:12
(UTC+00:00)

Cosmos 1844 - Pass Details

Date: 18 September 2020
Orbit: 824 x 866 km, 70.9° (Epoch: 30 October)

Event Time Altitude Azimuth Distance (km) Brightness Sun altitude
Rises 21:10:10 0° 219° (SW) 3,412 6.8 -26.8°
Reaches altitude 10° 21:12:39 10° 222° (SW) 2,473 6.1 -27.0°
Maximum altitude 21:18:17 65° 304° (NW) 927 4.0 -27.7°
Drops below altitude 10° 21:23:54 10° 27° (NNE) 2,459 6.3 -28.3°
Sets 21:26:22 0° 30° (NNE) 3,391 7.0 -28.6°
